Regional Weather Roundup
Issued by NWS Goodland, KS

Home | Current Version | Previous Version | Text Only | Print | Product List | Glossary Off
Versions: 1 2 3 4 5 6 7 8 9 10 11 12 13 14 15 16 17 18 19 20 21 22 23 24 25 26 27 28 29 30 31 32 33 34 35 36 37 38 39 40 41 42 43 44 45 46 47 48 49 50

000
ASUS43 KGLD 210108
RWRGLD

GOODLAND FORECAST AREA HOURLY WEATHER ROUNDUP
NATIONAL WEATHER SERVICE GOODLAND KS
700 PM MDT MON OCT 20 2014

...OFFICIAL OBSERVATIONS...

CITY           SKY/WX    TMP DP  RH WIND       PRES   REMARKS
GOODLAND KS    CLEAR     58  39  49 S10       30.11R
HILL CITY KS   CLEAR     58  40  51 CALM      30.07S
IMPERIAL NEB   CLEAR     62  37  39 S9        30.06S
MCCOOK NEB     CLEAR     64  40  41 S5        30.06S
AKRON CO       CLEAR     61  37  41 S12       30.08R
BURLINGTON CO  CLEAR     60  40  47 S10       30.12S
LIMON CO       CLEAR     55  38  52 S10       30.14R
$$

...UNOFFICIAL OBSERVATIONS...

CITY           SKY/WX    TMP DP  RH WIND       PRES   REMARKS
COLBY KS       CLEAR     59  43  55 SE8       30.10S
GOVE KS          N/A     60  32  34 MISG        N/A
NORTON KS      CLEAR     63  36  36 SE6       30.06R
SHARON SPRINGS   N/A     58  42  55 N7          N/A
TRENTON NEB      N/A     59  32  36 S9          N/A
KIT CARSON CO    N/A     59  43  55 CALM        N/A
YUMA CO          N/A     59  38  44 CALM        N/A
$$


USA.gov is the U.S. government's official web portal to all federal, state and local government web resources and services.